Weather in Spalding

United Kingdom     52°47′32″N   0°08′38″E
temp.,
°C
wind,
m/s
gust,
m/s
humid.,
%
clouds,
%
prec.,
mm/h
press.,
hPa
HPBL,
m
19 september, sun
sun1901:00+17sse3776100 0.0 1013273
04:00+16se2378100 0.0 101374
07:00+16se2379100 0.0 101385
10:00+18s2369100 0.0 1014473
13:00+17w2378100 0.0 1014211
16:00+19nw1269100 0.3 1014578
19:00+16nne1186100 2.6 101531
22:00+16nnw3693100 3.6 1017285
20 september, mon
mon2001:00+14nnw4888100 6.0 1019355
04:00+13nnw478999 0.2 1020308
07:00+14nnw4792100 0.3 1022411
10:00+14n3591100 0.0 1024336
13:00+16n347965 0.1 1024538
16:00+18nne346934 0.0 1025890
19:00+15ese348433 0.1 102674
22:00+13nw228543 0.0 102817
21 september, tue
tue2101:00+12nw347568 0.0 102962
04:00+12wnw3484100 0.0 102874
07:00+12w3591100 0.0 102996
10:00+16wnw4573100 0.0 1030355
13:00+19wnw3453100 0.0 1030842
16:00+20wnw3451100 0.0 1029945
19:00+16w3571100 0.0 103082
22:00+14wnw33765 0.0 103053
22 september, wed
wed2201:00+13w33760 0.0 103034
04:00+13wsw33810 0.0 102935
07:00+12sw35890 0.0 102882
10:00+18wsw48670 0.0 1028415
13:00+22wsw68535 0.0 10261036
16:00+23w68525 0.0 10231326
19:00+18w496796 0.0 1023210
22:00+14w387972 0.0 1023218
23 september, thu
thu2301:00+15w41071100 0.0 1022428
04:00+15wnw597788 0.0 1022751
07:00+11wnw49675 0.0 1022328
10:00+14wnw57580 0.0 1021767
13:00+16w67510 0.0 10191081
16:00+18w79500 0.0 10171075
19:00+16w48640 0.0 1015208
22:00+14w411703 0.0 1014332